Terminal Aerodrome Forecast
Issued by NWS

Home | Current Version | Previous Version | Text Only | Print | Product List | Glossary On
Versions: 1 2 3 4 5 6 7 8 9 10 11 12
000
FTUS45 KFGZ 221100
TAFGCN
TAF
KGCN 221120Z 2212/2312 VRB02KT P6SM FEW250
     FM221800 23010KT P6SM FEW250
     FM230200 VRB02KT P6SM FEW250=

USA.gov is the U.S. government's official web portal to all federal, state and local government web resources and services.